• în România
  • Lista ţărilor
  • Pe 7 zile
  • Temperatura apei
  • Hartă satelitară
  • Meteo pe hartă
  • Widget-uri
  • user-avatar
    Intrare

    Meteo pe oră la Antwerp

    Astăzi, 15 Decembrie, Vineri

    Timp Temperatura Precipitaţii Vânt Presiune Umiditate
    00:00 0°C° 0 mm 4 m/s 742 mmHg 90%
    01:00 0°C° 0 mm 4 m/s 742 mmHg 90%
    02:00 0°C° 0 mm 4 m/s 742 mmHg 90%
    03:00 0°C° 0 mm 5 m/s 742 mmHg 90%
    04:00 0°C° 0 mm 4 m/s 743 mmHg 91%
    05:00 0°C° 0 mm 4 m/s 743 mmHg 92%
    06:00 0°C° 0 mm 4 m/s 743 mmHg 93%
    07:00 +1°C° 0 mm 3 m/s 743 mmHg 93%
    08:00 +1°C° 0 mm 3 m/s 743 mmHg 93%
    09:00 +1°C° 0 mm 3 m/s 743 mmHg 93%
    10:00 +2°C° 0 mm 3 m/s 744 mmHg 89%
    11:00 +3°C° 0 mm 3 m/s 744 mmHg 86%
    12:00 +4°C° 0 mm 3 m/s 745 mmHg 83%
    13:00 +4°C° 0,1 mm 2 m/s 745 mmHg 85%
    14:00 +4°C° 0,1 mm 2 m/s 746 mmHg 87%
    15:00 +5°C° 0,1 mm 1 m/s 746 mmHg 90%
    16:00 +4°C° 0,1 mm 1 m/s 747 mmHg 90%
    17:00 +4°C° 0,1 mm 1 m/s 748 mmHg 91%
    18:00 +4°C° 0,1 mm 1 m/s 748 mmHg 92%
    19:00 +3°C° 0 mm 1 m/s 749 mmHg 92%
    20:00 +2°C° 0 mm 2 m/s 750 mmHg 92%
    21:00 +2°C° 0 mm 2 m/s 751 mmHg 93%
    22:00 +2°C° 0 mm 2 m/s 752 mmHg 92%
    23:00 +2°C° 0 mm 2 m/s 752 mmHg 91%

    Mâine, 16 Decembrie, Sâmbătă

    Timp Temperatura Precipitaţii Vânt Presiune Umiditate
    00:00 +2°C° 0 mm 2 m/s 753 mmHg 90%
    01:00 +2°C° 0,1 mm 2 m/s 754 mmHg 89%
    02:00 +1°C° 0,1 mm 3 m/s 754 mmHg 88%
    03:00 +2°C° 0,1 mm 3 m/s 755 mmHg 87%
    04:00 +2°C° 0,2 mm 3 m/s 755 mmHg 86%
    05:00 +2°C° 0,2 mm 3 m/s 756 mmHg 86%
    06:00 +1°C° 0,2 mm 4 m/s 756 mmHg 85%
    07:00 +1°C° 0,1 mm 4 m/s 757 mmHg 83%
    08:00 +1°C° 0,1 mm 4 m/s 758 mmHg 82%
    09:00 +3°C° 0,1 mm 4 m/s 758 mmHg 80%
    10:00 +3°C° 0,2 mm 4 m/s 759 mmHg 76%
    11:00 +3°C° 0,2 mm 5 m/s 759 mmHg 72%
    12:00 +5°C° 0,2 mm 5 m/s 759 mmHg 68%
    13:00 +3°C° 0,2 mm 5 m/s 760 mmHg 70%
    14:00 +3°C° 0,2 mm 5 m/s 760 mmHg 71%
    15:00 +3°C° 0,2 mm 5 m/s 761 mmHg 73%
    16:00 +2°C° 0,2 mm 5 m/s 761 mmHg 75%
    17:00 +2°C° 0,2 mm 5 m/s 762 mmHg 77%
    18:00 +3°C° 0,2 mm 4 m/s 762 mmHg 79%
    19:00 +3°C° 0,2 mm 4 m/s 763 mmHg 80%
    20:00 +1°C° 0,2 mm 4 m/s 763 mmHg 80%
    21:00 +1°C° 0,2 mm 4 m/s 764 mmHg 81%
    22:00 +1°C° 0,1 mm 4 m/s 764 mmHg 81%
    23:00 +1°C° 0,1 mm 4 m/s 765 mmHg 82%

    Poimâine, 17 Decembrie, Duminică

    Timp Temperatura Precipitaţii Vânt Presiune Umiditate
    00:00 +1°C° 0,1 mm 4 m/s 765 mmHg 82%
    01:00 +1°C° 0,2 mm 4 m/s 765 mmHg 82%
    02:00 +1°C° 0,2 mm 4 m/s 766 mmHg 82%
    03:00 +1°C° 0,2 mm 4 m/s 766 mmHg 83%
    04:00 +1°C° 0,1 mm 4 m/s 766 mmHg 83%
    05:00 +1°C° 0,1 mm 4 m/s 767 mmHg 84%
    06:00 +1°C° 0,1 mm 4 m/s 767 mmHg 85%
    07:00 +1°C° 0,1 mm 4 m/s 767 mmHg 85%
    08:00 +1°C° 0,1 mm 4 m/s 768 mmHg 85%
    09:00 +1°C° 0,1 mm 4 m/s 768 mmHg 84%
    10:00 +3°C° 0 mm 4 m/s 768 mmHg 82%
    11:00 +3°C° 0 mm 5 m/s 768 mmHg 79%
    12:00 +3°C° 0 mm 5 m/s 768 mmHg 77%
    13:00 +3°C° 0 mm 5 m/s 768 mmHg 78%
    14:00 +3°C° 0 mm 5 m/s 768 mmHg 79%
    15:00 +3°C° 0 mm 5 m/s 768 mmHg 80%
    16:00 +3°C° 0 mm 5 m/s 768 mmHg 81%
    17:00 +3°C° 0 mm 6 m/s 768 mmHg 82%
    18:00 +2°C° 0 mm 6 m/s 767 mmHg 83%
    19:00 +3°C° 0,3 mm 7 m/s 767 mmHg 85%
    20:00 +3°C° 0,3 mm 7 m/s 766 mmHg 87%
    21:00 +4°C° 0,3 mm 8 m/s 766 mmHg 89%
    22:00 +4°C° 0,8 mm 8 m/s 766 mmHg 89%
    23:00 +5°C° 0,8 mm 9 m/s 765 mmHg 89%

    18 Decembrie, Luni

    Timp Temperatura Precipitaţii Vânt Presiune Umiditate
    00:00 +6°C° 0,8 mm 9 m/s 765 mmHg 89%
    01:00 +6°C° 0,3 mm 8 m/s 765 mmHg 88%
    02:00 +6°C° 0,3 mm 7 m/s 765 mmHg 87%
    03:00 +6°C° 0,3 mm 7 m/s 765 mmHg 87%
    04:00 +5°C° 0 mm 6 m/s 765 mmHg 84%
    05:00 +5°C° 0 mm 5 m/s 766 mmHg 81%
    06:00 +5°C° 0 mm 4 m/s 766 mmHg 78%
    07:00 +5°C° 0 mm 4 m/s 767 mmHg 78%
    08:00 +5°C° 0 mm 4 m/s 768 mmHg 78%
    09:00 +5°C° 0 mm 4 m/s 769 mmHg 78%
    10:00 +5°C° 0 mm 4 m/s 769 mmHg 75%
    11:00 +6°C° 0 mm 5 m/s 769 mmHg 73%
    12:00 +7°C° 0 mm 5 m/s 770 mmHg 70%
    13:00 +6°C° 0 mm 5 m/s 770 mmHg 73%
    14:00 +6°C° 0 mm 4 m/s 770 mmHg 76%
    15:00 +7°C° 0 mm 3 m/s 770 mmHg 79%
    16:00 +5°C° 0 mm 3 m/s 771 mmHg 82%
    17:00 +4°C° 0 mm 3 m/s 771 mmHg 85%
    18:00 +5°C° 0 mm 2 m/s 772 mmHg 88%
    19:00 +4°C° 0 mm 2 m/s 772 mmHg 88%
    20:00 +4°C° 0 mm 2 m/s 773 mmHg 89%
    21:00 +4°C° 0 mm 2 m/s 774 mmHg 90%
    22:00 +4°C° 0 mm 2 m/s 774 mmHg 90%
    23:00 +4°C° 0 mm 2 m/s 774 mmHg 90%

    19 Decembrie, Marţi

    Timp Temperatura Precipitaţii Vânt Presiune Umiditate
    00:00 +4°C° 0 mm 1 m/s 774 mmHg 91%
    01:00 +4°C° 0 mm 1 m/s 774 mmHg 91%
    02:00 +4°C° 0 mm 1 m/s 775 mmHg 92%
    03:00 +4°C° 0 mm 1 m/s 775 mmHg 92%
    04:00 +4°C° 0 mm 1 m/s 775 mmHg 92%
    05:00 +4°C° 0 mm 1 m/s 775 mmHg 93%
    06:00 +4°C° 0 mm 1 m/s 776 mmHg 93%
    07:00 +4°C° 0 mm 1 m/s 776 mmHg 93%
    08:00 +3°C° 0 mm 2 m/s 777 mmHg 93%
    09:00 +3°C° 0 mm 2 m/s 777 mmHg 93%
    10:00 +4°C° 0 mm 2 m/s 777 mmHg 90%
    11:00 +5°C° 0 mm 2 m/s 777 mmHg 86%
    12:00 +5°C° 0 mm 3 m/s 777 mmHg 83%
    13:00 +5°C° 0 mm 3 m/s 777 mmHg 85%
    14:00 +5°C° 0 mm 2 m/s 777 mmHg 86%
    15:00 +5°C° 0 mm 2 m/s 777 mmHg 88%
    16:00 +3°C° 0 mm 3 m/s 777 mmHg 89%
    17:00 +3°C° 0 mm 3 m/s 777 mmHg 90%
    18:00 +2°C° 0 mm 3 m/s 777 mmHg 90%
    19:00 +3°C° 0,1 mm 3 m/s 777 mmHg 89%
    20:00 +3°C° 0,1 mm 4 m/s 777 mmHg 88%
    21:00 +3°C° 0,1 mm 4 m/s 778 mmHg 88%
    22:00 +3°C° 0,2 mm 4 m/s 777 mmHg 88%
    23:00 +3°C° 0,2 mm 4 m/s 777 mmHg 88%

    20 Decembrie, Miercuri

    Timp Temperatura Precipitaţii Vânt Presiune Umiditate
    00:00 +4°C° 0,2 mm 4 m/s 777 mmHg 88%
    01:00 +4°C° 0,1 mm 4 m/s 777 mmHg 88%
    02:00 +4°C° 0,1 mm 4 m/s 777 mmHg 89%
    03:00 +4°C° 0,1 mm 4 m/s 777 mmHg 90%
    04:00 +5°C° 0,1 mm 4 m/s 777 mmHg 91%
    05:00 +5°C° 0,1 mm 4 m/s 777 mmHg 92%
    06:00 +5°C° 0,1 mm 3 m/s 777 mmHg 94%
    07:00 +5°C° 0 mm 3 m/s 777 mmHg 95%
    08:00 +7°C° 0 mm 3 m/s 778 mmHg 95%
    09:00 +7°C° 0 mm 3 m/s 778 mmHg 96%
    10:00 +8°C° 0 mm 3 m/s 778 mmHg 96%
    11:00 +8°C° 0 mm 3 m/s 778 mmHg 95%
    12:00 +9°C° 0 mm 3 m/s 778 mmHg 94%
    13:00 +9°C° 0 mm 3 m/s 778 mmHg 95%
    14:00 +9°C° 0 mm 3 m/s 778 mmHg 95%
    15:00 +9°C° 0 mm 3 m/s 778 mmHg 96%
    16:00 +9°C° 0 mm 2 m/s 778 mmHg 96%
    17:00 +9°C° 0 mm 2 m/s 778 mmHg 96%
    18:00 +8°C° 0 mm 2 m/s 779 mmHg 96%
    19:00 +8°C° 0 mm 2 m/s 779 mmHg 96%
    20:00 +8°C° 0 mm 2 m/s 779 mmHg 97%
    21:00 +8°C° 0 mm 2 m/s 779 mmHg 97%
    22:00 +7°C° 0 mm 2 m/s 779 mmHg 97%
    23:00 +7°C° 0 mm 2 m/s 779 mmHg 97%
    Arată mai mult